Location: Kalberh�ni
(46.4610°N, 7.2453°E)
Time: 22:28:02
(UTC+00:00)

USA 229 - Pass Details

Date: 31 October 2021
Orbit: 946 x 1266 km, 63.4° (Epoch: 25 November)

Event Time Altitude Azimuth Distance (km) Brightness Sun altitude
Rises 19:36:21 0° 281° (WNW) 3,736 7.6 -34.5°
Reaches altitude 10° 19:39:36 10° 297° (WNW) 2,835 6.7 -35.1°
Maximum altitude 19:44:38 22° 346° (NNW) 2,176 5.5 -35.9°
Enters shadow 19:46:29 20° 7° (N) 2,312 5.5 -36.2°
